This is the latest recevied weather packets stored in our database for station/object N0NB. If no packets are shown the sender has not sent any weather packets the latest 10 day(s).
| Time | Temp. | Humidity | Pressure | Rain* | Wind** | Luminosity | Snow |
|---|---|---|---|---|---|---|---|
| 1777939217 | 25° C | 30% | 1000.4 hPa | 0 mm | - | 149 W/m² | - |
| 1777938617 | 25° C | 31% | 1000.5 hPa | 0 mm | - | 127 W/m² | - |
| 1777938017 | 25.56° C | 31% | 1000.3 hPa | 0 mm | - | 147 W/m² | - |
| 1777937417 | 26.11° C | 30% | 1000.3 hPa | 0 mm | - | 121 W/m² | - |
| 1777936817 | 27.22° C | 28% | 1000.4 hPa | 0 mm | - | 158 W/m² | - |
| 1777936217 | 27.78° C | 27% | 1000.2 hPa | 0 mm | - | 160 W/m² | - |
| 1777935617 | 28.89° C | 25% | 1000.3 hPa | 0 mm | - | 267 W/m² | - |
| 1777935017 | 29.44° C | 20% | 1000.1 hPa | 0 mm | - | 426 W/m² | - |
| 1777934417 | 29.44° C | 21% | 1000 hPa | 0 mm | - | 318 W/m² | - |
| 1777933817 | 29.44° C | 22% | 999.9 hPa | 0 mm | - | 310 W/m² | - |
| 1777933217 | 29.44° C | 23% | 999.7 hPa | 0 mm | - | 311 W/m² | - |
| 1777932617 | 29.44° C | 24% | 999.7 hPa | 0 mm | - | 462 W/m² | - |
| 1777932017 | 29.44° C | 29% | 999.8 hPa | 0 mm | - | 608 W/m² | - |
| 1777931417 | 29.44° C | 21% | 999.9 hPa | 0 mm | - | 559 W/m² | - |
| 1777930817 | 30° C | 20% | 999.9 hPa | 0 mm | - | 422 W/m² | - |
| 1777930217 | 30° C | 21% | 1000.1 hPa | 0 mm | - | 499 W/m² | - |
| 1777929617 | 30° C | 19% | 1000.1 hPa | 0 mm | - | 605 W/m² | - |
| 1777929017 | 30° C | 21% | 1000.2 hPa | 0 mm | - | 682 W/m² | - |
| 1777928417 | 30° C | 25% | 1000.3 hPa | 0 mm | - | 511 W/m² | - |
| 1777927817 | 30° C | 20% | 1000.5 hPa | 0 mm | - | 738 W/m² | - |
| 1777927217 | 29.44° C | 22% | 1000.6 hPa | 0 mm | - | 784 W/m² | - |
| 1777926617 | 29.44° C | 19% | 1000.6 hPa | 0 mm | - | 699 W/m² | - |
| 1777926017 | 29.44° C | 21% | 1000.8 hPa | 0 mm | - | 791 W/m² | - |
| 1777925417 | 29.44° C | 26% | 1001 hPa | 0 mm | - | 793 W/m² | - |
| 1777924816 | 29.44° C | 22% | 1001.1 hPa | 0 mm | - | 757 W/m² | - |
* Rain latest hour (hover to see other rain measurements)
** Current wind speed in m/s (hover to see current wind gust speed)